User: anonymous   Login
Location: Unspecified
(0.0000°N, 0.0000°E)
Time: 05:20:58
(UTC+00:00)
Language:

STARLINK-36156 - Orbit

View from above orbital plane
View from above orbital plane
View from above satellite
View from above satellite

Ground track
Ground track

The orbit is defined by the following mean orbital elements,

1 67006U          26145.39382029 +.00000000 +00000-0 +38756-3 0 00008
2 67006  70.0007 261.2042 0003448 268.7931  91.2833 14.98338294    04
Epoch (UTC): 25 May 2026 09:27:06
Eccentricity: 0.0003448
inclination: 70.0007°
perigee height: 570 km
apogee height: 574 km
right ascension of ascending node: 261.2042°
argument of perigee: 268.7931°
revolutions per day: 14.98338294
mean anomaly at epoch: 91.2833°

The dashed part of the orbit path shows where the satellite is in the earth's shadow,  

DLR